www.pogodaiklimat.ru

Погода и климат >> Архив погоды >> Бенин >> Боикон


ПОГОДА в Боиконе

  • Прогноз погоды в Боиконе
  • Монитор погоды в Боиконе

АРХИВ ПОГОДЫ в Боиконе

Время (UTC), дата Ветер
(напр.,м/с)
 
Видим.   Явления Облачность Т
(С)
Тd
(С)
f
(%)
Тe
(С)
Тes
(С)
Комфортность P
(гПа)
Po
(гПа)
Тmin
(С)
Tmax
(С)
R
(мм)
R24
(мм)
S
(см)
18 11.09 ЮЗ 1 6000 м гроза без осадков 9/3 330 м
[Cb cap Ac As]
+24.0 +23.3 96 +32 +32 очень
душно
1011.5 993.5 +29.6 9
21 11.09 В 1 7000 м зарница {гроза} 9/5 330 м
[Cb cap Ac As]
+23.8 +23.3 97 +32 +32 очень
душно
1012.6 994.6
00 12.09 СЗ 1 6000 м {гроза} 10/10 330 м
[Sc]
+23.4 +23.0 98 +33 +33 очень
душно
1012.5 994.6
03 12.09 СЗ 2 6000 м гроза без осадков 9/8 330 м
[Cb cap Ac trans Ci sp]
+23.2 +22.9 98 +32 +32 очень
душно
1011.1 993.1
06 12.09 ЮЗ 1 4000 м дымка {гроза} 10/10 330 м
[Sc]
+23.0 +22.7 98 +32 +32 очень
душно
1012.9 994.9 +22.9 9
09 12.09 Ю 1 7000 м {дождь} 9/5 330 м
[Cu Sc Ac trans Ci sp]
+25.0 +23.3 90 +33 +38 очень
душно
1014.1 996.0
12 12.09 Ю 3 8000 м {дождь} 9/8 330 м
[Cu Sc Ac trans Ci sp]
+28.2 +23.6 76 +38 +41 очень
душно
1013.1 995.2 3
15 12.09 Ю 4 8000 м 9/6 450 м
[Cb cap Ac cuf Ci sp]
+28.3 +24.5 80 +40 +42 очень
душно
1011.1 993.2
18 12.09 Ю 4 8000 м 9/5 330 м
[Cu Sc Ac trans Ci sp]
+26.2 +23.0 83 +35 +35 очень
душно
1011.7 993.7 +29.5 3
21 12.09 Ю 3 8000 м 9/8 330 м
[Sc Ac trans Ci sp]
+24.1 +23.2 95 +32 +32 очень
душно
1013.8 995.8
00 13.09 ЮЗ 3 8000 м 9/9 330 м
[Sc]
+23.9 +23.3 96 +32 +32 очень
душно
1013.4 995.5
03 13.09 ЮЗ 2 8000 м 8/1 330 м
[Sc Ac trans Ci sp]
+23.5 +23.1 98 +31 +31 очень
душно
1012.9 995.0
06 13.09 З 1 7000 м 8/1 330 м
[Sc Ac trans Ci sp]
+23.2 +22.9 98 +32 +32 очень
душно
1013.9 995.9 +23.1 3
09 13.09 Ю 1 8000 м 9/6 330 м
[Cu Sc Ac trans Ci sp]
+26.0 +23.4 86 +35 +39 очень
душно
1015.7 997.7
12 13.09 Ю 2 10 км 9/9 330 м
[Cu Sc Ac trans Ci sp]
+29.4 +23.7 71 +40 +42 очень
душно
1013.4 995.5
15 13.09 Ю 4 10 км 9/6 330 м
[Cb cap Ac cuf Ci sp]
+29.5 +24.1 73 +41 +43 опасность
перегрева
1011.2 993.4
18 13.09 Ю 2 9000 м 9/3 450 м
[Cb cap Ac cuf Ci sp]
+27.5 +23.2 77 +37 +37 очень
душно
1012.4 994.4 +31.3
21 13.09 ЮЗ 3 8000 м 8/0
[Ac trans Ci sp]
+24.5 +23.2 92 +33 +33 очень
душно
1013.6 995.6
00 14.09 ЮЗ 3 8000 м 9/6 450 м
[Sc Ac trans Ci sp]
+24.0 +23.3 96 +32 +32 очень
душно
1013.6 995.7
03 14.09 З 1 8000 м 10/4 300 м
[Sc Ac As]
+24.0 +23.1 95 +32 +32 очень
душно
1012.7 994.9
06 14.09 С 1 8000 м 9/6 300 м
[Sc Ac trans]
+23.5 +22.8 96 +31 +31 очень
душно
1013.8 995.9 +23.5
09 14.09 З 4 8000 м 9/6 330 м
[Sc Ac trans]
+25.4 +23.1 87 +34 +36 очень
душно
1015.5 997.5
12 14.09 С 3 8000 м гроза без осадков 9/6 300 м
[Cb cap Ac trans Ci sp]
+24.2 +21.5 85 +31 +35 очень
душно
1011.9 993.9 3
15 14.09 ЮВ 1 8000 м 10/4 330 м
[Sc Ac As]
+25.7 +22.9 85 +34 +36 очень
душно
1011.0 993.0
18 14.09 ЮВ 1 7000 м {гроза} 10/4 330 м
[Sc Ac As Ci sp]
+23.3 +22.1 93 +32 +32 очень
душно
1011.6 993.6 +26.2 3
21 14.09 штиль 0 7000 м 9/0
[Ac trans Ci sp]
+22.8 +22.5 98 +31 +31 очень
душно
1013.0 995.0
00 15.09 ЮЗ 1 7000 м 9/0
[Ac trans Ci sp]
+22.1 +21.8 98 +29 +29 очень
душно
1012.6 994.5
03 15.09 штиль 0 7000 м 9/0
[Ac As Ci sp]
+22.1 +22.0 99 +29 +29 очень
душно
1011.5 993.5
06 15.09 СЗ 1 4500 м дымка 9/0
[Ac trans Ci sp]
+22.1 +22.0 99 +29 +29 очень
душно
1012.4 994.3 +22.0 3
09 15.09 ЮЗ 3 7000 м 9/5 330 м
[Cu Sc Ac trans Ci sp]
+26.1 +23.4 85 +35 +38 очень
душно
1013.8 995.8
12 15.09 ЮЗ 3 8000 м 9/8 330 м
[Cu Sc Ac trans Ci sp]
+28.3 +23.6 76 +39 +41 очень
душно
1012.2 994.2
15 15.09 ЮЗ 2 8000 м 9/6 330 м
[Cu Sc Ci sp]
+30.5 +23.4 66 +41 +45 опасность
перегрева
1009.9 992.0
18 15.09 Ю 4 7000 м 9/4 330 м
[Cu Sc Ac trans Ci sp]
+27.8 +24.0 80 +39 +39 очень
душно
1010.3 992.4 +31.4
21 15.09 Ю 2 7000 м зарница 8/1 900 м
[Cb cap Ac cuf Ci sp]
+24.6 +23.6 94 +33 +33 очень
душно
1012.5 994.5
00 16.09 ЮЗ 3 7000 м 10/10 330 м
[Sc]
+24.2 +23.5 96 +33 +33 очень
душно
1012.3 994.4
03 16.09 ЮЗ 2 8000 м 10/8 330 м
[Sc Ac trans Ci sp]
+24.0 +23.4 96 +32 +32 очень
душно
1012.1 993.5
06 16.09 ЮЗ 2 8000 м 10/10 330 м
[Sc]
+24.0 +23.3 96 +32 +32 очень
душно
1012.6 994.7 +23.9
09 16.09 ЮЗ 4 8000 м 9/8 330 м
[Cu Sc Ac trans Ci sp]
+26.2 +22.9 82 +35 +36 очень
душно
1013.5 995.5
12 16.09 ЮЗ 3 8000 м 9/8 330 м
[Cu Sc Ac trans Ci sp]
+29.5 +23.3 69 +40 +42 очень
душно
1012.3 994.5
15 16.09 СЗ 1 8000 м 9/4 450 м
[Cu med, cong Ac trans Ci sp]
+31.1 +23.1 63 +42 +46 опасность
перегрева
1009.2 991.5
18 16.09 Ю 3 8000 м гроза без осадков 9/4 330 м
[Cb cap Ac trans Ci sp]
+28.8 +24.6 78 +41 +41 опасность
перегрева
1010.5 992.6 +32.2
21 16.09 Ю 1 8000 м {гроза} 9/1 330 м
[Sc Ac As Ci sp]
+25.6 +23.7 89 +35 +35 очень
душно
1012.1 994.2
00 17.09 З 2 7000 м {гроза} 9/9 330 м
[Sc]
+24.4 +23.7 96 +33 +33 очень
душно
1012.6 994.8
03 17.09 ЮЗ 3 7000 м 9/8 330 м
[Sc Ci sp]
+24.0 +23.4 96 +32 +32 очень
душно
1010.9 993.1
06 17.09 ЮЗ 2 7000 м 9/4 330 м
[Sc Ac trans Ci sp]
+24.0 +23.0 94 +32 +32 очень
душно
1011.8 993.9 +23.9
09 17.09 ЮЗ 4 8000 м 9/6 330 м
[Cu Sc Ac trans]
+26.0 +23.1 84 +35 +36 очень
душно
1013.7 995.8
12 17.09 СЗ 1 8000 м 9/8 330 м
[Cu Sc Ac trans Ci sp]
+28.4 +23.7 76 +39 +43 очень
душно
1011.9 994.0
15 17.09 СЗ 2 8000 м в посл. час гроза {дождь} 9/4 450 м
[Cb cap Ac cuf Ci sp]
+27.5 +23.0 76 +37 +40 очень
душно
1009.8 991.9
18 17.09 ЮЗ 1 8000 м {гроза, дождь} 9/1 450 м
[Cu med, cong Ac cuf Ci ing]
+25.5 +23.3 88 +34 +34 очень
душно
1010.6 992.7 +28.6 0.6
21 17.09 З 1 8000 м 8/1 330 м
[Sc Ac trans Ci sp]
+23.5 +22.6 95 +31 +31 очень
душно
1011.5 993.5
00 18.09 З 1 8000 м 8/0 300 м
[Ac trans Ci sp]
+22.4 +21.8 96 +30 +30 очень
душно
1012.3 994.3
03 18.09 штиль 0 8000 м 8/0
[Ac trans Ci sp]
+22.2 +21.9 98 +29 +29 очень
душно
1011.3 993.3
06 18.09 З 2 7000 м 9/1 450 м
[Cu med, cong Ac trans Ci sp]
+22.0 +21.9 99 +29 +29 очень
душно
1012.0 994.0 +21.9 0.6
09 18.09 З 4 7000 м 9/1 330 м
[Sc Ac As Ci sp]
+25.0 +23.1 89 +33 +37 очень
душно
1012.9 994.9
12 18.09 СЗ 2 8000 м 9/6 330 м
[Cu Sc Ac trans Ci sp]
+29.0 +23.1 71 +39 +44 очень
душно
1011.3 993.7
15 18.09 С 1 8000 м 9/6 330 м
[Cu Sc Ac trans Ci sp]
+30.7 +23.0 64 +41 +44 опасность
перегрева
1009.1 991.3

 

Местоположение метеостанции Боикон (Бенин): широта 7.17 долгота 2.07 высота над уровнем моря 167 м.

В архиве по умолчанию представлена погода в Боиконе за последнюю неделю. Архивные данные за месяц целиком и за предыдущие месяцы, начиная с января 2011 года, Вы можете получить, выбрав интересующий диапазон дат из раскрывающегося списка и нажав кнопку "Ввод!".


*Определитесь, кто Вы:
робот инопланетянин человек

Внимание! Время в таблицах - всемирное. Для получения местного времени необходимо прибавить поправку, которая равна 1 ч.

Смотрите также архив погоды в соседних городах и на ближайших метеорологических станциях:

Погода в Таблигбо (Того) (91 км)
Погода в Котону (Бенин) (97 км)
Погода в Саве (Бенин) (105 км)
Погода в Атакпаме (Того) (114 км)
Погода в Ломе (Того) (143 км)
Погода в Лагосе (Нигерия) (154 км)
Погода в Лагосе Ошоди (Нигерия) (163 км)
Погода в Акатзи (Гана) (183 км)
Погода в Хо (Гана) (188 км)
Погода в Ибадане (Нигерия) (204 км)

Пояснения к столбцам:

Ветер - указаны скорость ветра в м/с - средняя за 10 мин, порывы в срок и между сроками (в фигурных скобках) и направление, откуда дует ветер: С - северный, СВ - северо-восточный, В - восточный, ЮВ - юго-восточный, Ю - южный, ЮЗ - юго-западный, З - западный, СЗ - северо-западный.
Видимость - горизонтальная дальность видимости в метрах или километрах. При видимости от 1 до 10 км при отсутствии осадков обычно наблюдается дымка, при ухудшении видимости до 1 км и менее - туман. В сухую погоду видимость может ухудшаться дымом, пылью или мглою.
Явления - указаны атмосферные явления, наблюдавшиеся в срок или в последний час перед сроком; фигурными скобками обозначены явления, наблюдавшиеся между сроками (за 1-3 часа до срока); квадратными скобками обозначены град или гололедные отложения с указанием их диаметра в мм.
Облачность - указаны через наклонную черту общая и нижняя облачность в баллах и высота нижней границы облаков в метрах; квадратными скобками обозначены формы облаков: Ci - перистые, Cs - перисто-слоистые, Cc - перисто-кучевые, Ac - высококучевые, As - высокослоистые, Sc - слоисто-кучевые, Ns - слоисто-дождевые, Cu - кучевые, Cb - кучево-дождевые. Подробнее классификацию облаков см. в Атласе облаков (PDF).
T - Температура воздуха - температура, измеренная на высоте 2 м над землей.
Td - Температура точки росы - температура, при понижении до которой содержащийся в воздухе водяной пар достигнет насыщения.
f - Относительная влажность воздуха - влажноcть воздуха, измеренная на высоте 2 м над землей.
Te - Эффективная температура - температура, которую ощущает одетый по сезону человек в тени. Характеристика душности погоды. При расчете учитывается влияние влажности воздуха и скорости ветра на теплоощущения человека.
Tes - Эффективная температура на солнце - температура, которую ощущает человек, с поправкой на солнечный нагрев. Характеристика знойности погоды. Зависит от высоты солнца над горизонтом, облачности и скорости ветра. Ночью, в пасмурную погоду, а также при ветре 12 м/с и более поправка равна нулю.
P - Атмосферное давление - приведенное к уровню моря атмосферное давление.
Po - Атмосферное давление - измеренное на уровне метеостанции атмосферное давление.
Tmin - Минимальная температура - минимум температуры воздуха на высоте 2 м над землей.
Tmax - Максимальная температура - максимум температуры воздуха на высоте 2 м над землей.
R - Количество осадков - Количество выпавших осадков за период времени, мм. При наведении курсора мыши на число - период времени, за который выпало указанное количество осадков.
R24 - Количество осадков - Количество выпавших осадков за 24 часа, мм.
S - Снежный покров - Высота снежного покрова, см. При наведении курсора мыши на число - состояние снежного покрова и степень покрытия местности в баллах.